Location: Newark
(45.9456°N, 15.4064°E)
Time: 18:21:03
(UTC+00:00)

Courier 1B Rocket - Pass Details

Date: 21 January 2020
Orbit: 920 x 1202 km, 28.2° (Epoch: 16 February)

Event Time Altitude Azimuth Distance (km) Brightness Sun altitude
Rises 14:56:05 0° 242° (WSW) 3,647 10.3 6.6°
Reaches altitude 10° 15:00:09 10° 218° (SW) 2,654 9.2 6.0°
Maximum altitude 15:03:15 14° 188° (S) 2,345 7.8 5.6°
Drops below altitude 10° 15:06:20 10° 158° (SSE) 2,609 7.5 5.2°
Sets 15:10:16 0° 134° (SE) 3,542 7.8 4.6°
